EW9774 Weather Reports


Display with metric or nautical units.
time (UTC)temp
F
wind
direction
speed
MPH
gust
MPH
rain 1hr
in
rain 24hr
in
rain mn
in
humidity
%
barometer
mb
20260831024530 64 181 4.0 8.0 0.00 0.00 0.00 62 1016.5
20260831023030 66 180 3.0 6.0 0.00 0.00 0.00 59 1016.5
20260831020033 68 182 5.0 11.0 0.00 0.00 0.00 53 1016.5
20260831014529 69 181 5.0 14.0 0.00 0.00 0.00 51 1016.4
20260831013029 70 182 7.0 15.0 0.00 0.00 0.00 49 1016.5
20260831011529 71 181 7.0 14.0 0.00 0.00 0.00 48 1016.6
20260831010030 71 183 5.0 13.0 0.00 0.00 0.00 47 1016.6
20260831004530 72 185 4.0 16.0 0.00 0.00 0.00 46 1016.6
20260831003031 72 182 6.0 13.0 0.00 0.00 0.00 46 1016.6
20260831001530 72 185 5.0 15.0 0.00 0.00 0.00 45 1016.7
20260831000032 73 186 6.0 20.0 0.00 0.00 0.00 43 1016.7
20260830234533 73 208 4.0 15.0 0.00 0.00 0.00 42 1016.9
20260830233104 73 190 5.0 18.0 0.00 0.00 0.00 42 1016.9
20260830231533 73 202 4.0 15.0 0.00 0.00 0.00 42 1017.1
20260830224533 74 198 4.0 18.0 0.00 0.00 0.00 42 1017.5
20260830221532 75 195 4.0 16.0 0.00 0.00 0.00 43 1018.0
20260830214602 75 197 4.0 14.0 0.00 0.00 0.00 44 1018.4
20260830213030 75 329 3.0 14.0 0.00 0.00 0.00 44 1018.6
20260830211530 75 335 2.0 11.0 0.00 0.00 0.00 44 1018.7
20260830210030 75 118 1.0 15.0 0.00 0.00 0.00 45 1018.8
20260830200031 70 11 4.0 11.0 0.00 0.00 0.00 50 1019.6
20260830194534 69 360 4.0 11.0 0.00 0.00 0.00 51 1019.8
20260830193031 68 3 2.0 10.0 0.00 0.00 0.00 51 1019.9
20260830191529 69 73 3.0 9.0 0.00 0.00 0.00 51 1020.1
20260830190033 68 7 2.0 7.0 0.00 0.00 0.00 53 1020.2
20260830183031 66 22 5.0 11.0 0.00 0.00 0.00 57 1020.6
20260830181616 66 13 5.0 13.0 0.00 0.00 0.00 58 1020.7
20260830180031 65 42 5.0 11.0 0.00 0.00 0.00 58 1020.7
20260830174530 66 50 4.0 8.0 0.00 0.00 0.00 59 1020.7
20260830173029 65 109 2.0 6.0 0.00 0.00 0.00 61 1020.8
20260830171530 64 95 3.0 6.0 0.00 0.00 0.00 62 1020.8
20260830170029 63 86 2.0 7.0 0.00 0.00 0.00 65 1021.0
20260830164533 62 75 3.0 6.0 0.00 0.00 0.00 67 1021.2
20260830163031 61 108 3.0 6.0 0.00 0.00 0.00 70 1021.3
20260830161605 59 117 2.0 5.0 0.00 0.00 0.00 73 1021.5
20260830160146 57 116 2.0 4.0 0.00 0.00 0.00 75 1021.8
20260830153032 54 2 0.0 3.0 0.00 0.00 0.00 81 1021.9
20260830150030 51 202 0.0 1.0 0.00 0.00 0.00 89 1022.0
20260830144529 49 202 0.0 2.0 0.00 0.00 0.00 91 1022.1
20260830143031 47 202 0.0 0.0 0.00 0.00 0.00 92 1022.0
20260830141530 44 186 1.0 3.0 0.00 0.00 0.00 91 1021.8
20260830140056 44 183 1.0 3.0 0.00 0.00 0.00 91 1021.7
20260830134529 44 202 0.0 2.0 0.00 0.00 0.00 89 1021.5
20260830133034 44 185 1.0 3.0 0.00 0.00 0.00 87 1021.4
20260830130028 46 202 1.0 3.0 0.00 0.00 0.00 84 1021.1
20260830124529 48 182 1.0 5.0 0.00 0.00 0.00 83 1021.1
20260830123032 49 182 4.0 9.0 0.00 0.00 0.00 82 1021.1
20260830121606 50 186 4.0 10.0 0.00 0.00 0.00 82 1021.1
20260830120109 50 180 7.0 12.0 0.00 0.00 0.00 82 1021.0
20260830113031 50 180 7.0 13.0 0.00 0.00 0.00 83 1021.0
20260830104530 50 183 3.0 6.0 0.00 0.00 0.00 84 1021.0
20260830103031 49 181 4.0 8.0 0.00 0.00 0.00 86 1021.0
20260830101531 48 181 4.0 8.0 0.00 0.00 0.00 87 1020.9
20260830100031 48 183 3.0 8.0 0.00 0.00 0.00 85 1021.0
20260830094645 48 180 0.0 5.0 0.00 0.00 0.00 85 1020.9
20260830093031 48 183 2.0 5.0 0.00 0.00 0.00 84 1020.8
20260830091606 48 181 3.0 8.0 0.00 0.00 0.00 83 1020.9
20260830090109 48 183 2.0 6.0 0.00 0.00 0.00 82 1020.9
20260830083031 50 202 3.0 5.0 0.00 0.00 0.00 80 1021.1
20260830080030 50 180 4.0 7.0 0.00 0.00 0.00 80 1021.0
20260830074532 51 180 4.0 7.0 0.00 0.00 0.00 80 1021.0
20260830064530 50 181 4.0 8.0 0.00 0.00 0.00 83 1020.9
20260830063145 49 180 3.0 7.0 0.00 0.00 0.00 82 1021.0
20260830060030 52 190 2.0 5.0 0.00 0.00 0.00 80 1021.0
20260830054531 51 196 2.0 5.0 0.00 0.00 0.00 79 1021.0
20260830053030 52 183 2.0 5.0 0.00 0.00 0.00 78 1020.9
20260830051532 53 191 3.0 6.0 0.00 0.00 0.00 77 1020.9
20260830044530 53 188 3.0 5.0 0.00 0.00 0.00 76 1020.8
20260830041535 55 193 2.0 4.0 0.00 0.00 0.00 71 1020.4
20260830040107 57 181 3.0 6.0 0.00 0.00 0.00 67 1020.2
20260830034531 59 181 5.0 10.0 0.00 0.00 0.00 64 1020.0
20260830033030 59 181 7.0 15.0 0.00 0.00 0.00 65 1020.0
20260830031606 58 181 7.0 14.0 0.00 0.00 0.00 69 1019.9
20260830030032 59 180 5.0 9.0 0.00 0.00 0.00 68 1019.9